EST,Max TemperatureF,Mean TemperatureF,Min TemperatureF,Max Dew PointF,MeanDew PointF,Min DewpointF,Max Humidity, Mean Humidity, Min Humidity, Max Sea Level PressureIn, Mean Sea Level PressureIn, Min Sea Level PressureIn, Max VisibilityMiles, Mean VisibilityMiles, Min VisibilityMiles, Max Wind SpeedMPH, Mean Wind SpeedMPH, Max Gust SpeedMPH,PrecipitationIn, CloudCover, Events, WindDirDegrees
2012-11-1,51,46,40,34,32,29,70,61,52,29.82,29.76,29.71,10,10,10,13,6,17,T,5,,257
2012-11-2,57,48,38,33,26,20,70,47,23,29.97,29.87,29.81,10,10,10,15,5,24,0.00,3,,277
2012-11-3,56,44,32,40,29,26,89,61,32,30.12,30.06,29.98,10,10,7,10,3,15,0.06,2,Rain,283
2012-11-4,53,46,38,40,38,36,100,80,59,30.11,30.06,30.00,10,10,5,12,1,15,0.10,6,Rain,303
2012-11-5,52,39,26,31,28,23,92,62,32,30.16,30.10,30.05,10,10,10,12,2,15,0.00,1,,30
2012-11-6,42,37,31,29,28,25,75,67,59,30.21,30.11,29.98,10,10,10,10,4,14,0.00,4,,26
2012-11-7,48,39,30,31,29,27,85,67,49,29.97,29.93,29.86,10,10,10,9,2,,0.00,7,,30
2012-11-8,59,44,29,26,19,9,85,51,16,30.13,30.03,29.94,10,10,9,14,5,20,0.00,1,,306
2012-11-9,63,45,27,32,28,22,82,55,27,30.26,30.21,30.14,10,10,9,8,1,13,0.00,0,Snow,216
2012-11-10,71,51,30,36,29,18,92,53,14,30.37,30.31,30.24,10,10,10,7,1,,0.00,0,,187
2012-11-11,72,54,35,48,37,31,86,55,24,30.47,30.42,30.36,10,10,10,17,5,21,0.00,0,,189
2012-11-12,67,56,45,61,55,46,100,84,68,30.41,30.28,30.14,10,9,2,23,6,25,T,5,Rain,191
2012-11-13,59,47,35,57,39,27,100,71,41,30.47,30.31,30.17,10,9,2,12,5,17,0.26,5,Rain,346
2012-11-14,46,38,29,28,26,25,85,65,45,30.55,30.48,30.43,10,10,10,17,6,23,0.00,0,,28
2012-11-15,49,40,30,35,31,27,92,74,56,30.42,30.35,30.29,10,10,10,12,3,,0.00,3,,20
2012-11-16,55,41,26,35,30,25,100,66,32,30.45,30.36,30.30,10,9,5,8,2,,0.00,0,,36
2012-11-17,55,42,29,28,26,21,85,57,28,30.57,30.52,30.45,10,10,10,17,9,23,0.00,0,,29
2012-11-18,55,48,41,38,34,30,71,63,54,30.57,30.51,30.45,10,10,10,18,12,26,0.00,7,,25
2012-11-19,56,46,36,40,38,35,92,74,55,30.44,30.34,30.23,10,10,10,16,8,24,0.00,6,,26
2012-11-20,54,43,32,39,36,33,100,80,59,30.21,30.16,30.09,10,10,9,6,1,,0.00,0,,306
2012-11-21,59,44,29,40,33,29,100,66,31,30.23,30.19,30.14,10,9,2,12,2,14,0.00,0,,23
2012-11-22,60,43,26,34,27,22,92,57,22,30.28,30.23,30.18,10,10,10,12,1,,0.00,0,,47
2012-11-23,67,47,26,43,31,23,85,59,32,30.16,29.99,29.86,10,10,10,15,6,25,T,1,,244
2012-11-24,46,34,22,26,18,15,69,50,31,30.12,30.02,29.90,10,10,10,14,6,22,0.00,0,,305
2012-11-25,50,34,17,20,17,13,92,57,21,30.13,30.06,29.98,10,10,10,15,5,18,0.00,0,,205
2012-11-26,61,44,27,34,25,20,81,53,24,30.19,30.14,30.04,10,10,10,10,2,15,0.00,3,,220
2012-11-27,49,44,38,41,37,29,89,69,49,30.27,30.18,30.12,10,10,10,12,4,15,0.06,8,Rain,26
2012-11-28,50,38,25,36,27,16,92,60,28,30.40,30.32,30.25,10,10,7,7,3,,0.00,3,,291
2012-11-29,51,36,20,26,22,17,92,61,29,30.48,30.41,30.37,10,10,10,9,1,21,0.00,0,,201
2012-11-30,59,42,25,32,28,23,85,58,31,30.39,30.34,30.29,10,10,10,8,2,,0.00,0,,209